Flag for Morocco Weather past 2 weeks in Tangier, Morocco

64 °F


Feels Like: 64 °F
Forecast: 50 / 70 °F
Wind: 5 mph from Southeast

Location: Tanger Aerodrome

Current Time: Nov 28, 2015 at 11:41:29 AM

Latest Report: Nov 28, 2015 at 11:00 AM

Visibility: 5 mi

Pressure: 30.15 "Hg

Humidity: 64%

Dew point: 52 °F

Location of TangierLocation

Historic Weather in Tangier — Graph


Tangier temperature yesterday

Maximum temperature yesterday: 66 °F (at 12:30 PM)
Minimum temperature yesterday: 46 °F (at 2:00 AM)
Average temperature yesterday: 57 °F

Past Weeks' High & Low Weather Summary

High77 °F (Nov 15, 1:00 PM)94% (Nov 16, 11:00 PM)30.45 "Hg (Nov 16, 11:00 PM)
Low41 °F (Nov 24, 2:30 AM)39% (Nov 14, 1:30 PM)29.98 "Hg (Nov 23, 1:30 AM)
Average60 °F72%30.23 "Hg
* Reported Nov 13 10:00 AM — Nov 28 10:30 AM, Tangier, Weather by CustomWeather, © 2015

Note: Actual official high and low records may vary slightly from our data, if they occured in-between our weather recording intervals... More about our weather records


Tangier weather history for previous 24 hours

Time TempWeatherWind HumidityBarometerVisibility
10:30 AM
Sat, Nov 28
63 °FClear.6 mph77%30.15 "Hg5 mi
10:00 AM59 °FClear.7 mph88%30.15 "Hg5 mi
9:30 AM59 °FClear.5 mph88%30.15 "Hg5 mi
9:00 AM57 °FClear.5 mph88%30.15 "Hg5 mi
8:30 AM54 °FClear.2 mph94%30.12 "Hg5 mi
8:00 AM50 °FClear.5 mph88%30.12 "Hg5 mi
6:30 AM50 °FPassing clouds.6 mph88%30.09 "Hg4 mi
6:00 AM48 °FPassing clouds.5 mph94%30.09 "Hg4 mi
5:30 AM50 °FPassing clouds.7 mph94%30.07 "Hg4 mi
5:00 AM50 °FPassing clouds.2 mph88%30.07 "Hg4 mi
4:30 AM50 °FPassing clouds.1 mph88%30.07 "Hg4 mi
4:00 AM50 °FPassing clouds.5 mph94%30.07 "Hg4 mi
3:30 AM50 °FPassing clouds.6 mph88%30.07 "Hg4 mi
3:00 AM50 °FPassing clouds.3 mph94%30.07 "Hg4 mi
2:30 AM50 °FPassing clouds.1 mph94%30.07 "Hg4 mi
2:00 AM54 °FPassing clouds.5 mph88%30.07 "Hg4 mi
1:30 AM52 °FPassing clouds.6 mph94%30.07 "Hg4 mi
12:00 AM52 °FPassing clouds.No wind88%30.09 "Hg4 mi
11:00 PM
Fri, Nov 27
52 °FPassing clouds.7 mph88%30.07 "Hg4 mi
10:30 PM54 °FPassing clouds.2 mph88%30.07 "Hg4 mi
10:00 PM52 °FPassing clouds.3 mph94%30.07 "Hg4 mi
9:30 PM54 °FPassing clouds.3 mph94%30.07 "Hg4 mi
9:00 PM54 °FPassing clouds.3 mph88%30.07 "Hg5 mi
8:30 PM55 °FPassing clouds.3 mph82%30.07 "Hg5 mi
8:00 PM54 °FPassing clouds.1 mph88%30.07 "Hg5 mi
7:30 PM54 °FPassing clouds.5 mph88%30.04 "Hg5 mi
7:00 PM55 °FPassing clouds.3 mph82%30.04 "Hg6 mi
6:30 PM55 °FPassing clouds.3 mph82%30.04 "Hg5 mi
6:00 PM57 °FPassing clouds.1 mph77%30.04 "Hg5 mi
5:30 PM61 °FPassing clouds.1 mph77%30.04 "HgN/A
5:00 PM63 °FPassing clouds.5 mph73%30.01 "HgN/A
4:30 PM64 °FPassing clouds.6 mph68%30.01 "HgN/A
4:00 PM64 °FScattered clouds.7 mph68%30.01 "HgN/A
3:30 PM64 °FScattered clouds.9 mph68%30.01 "HgN/A
3:00 PM66 °FScattered clouds.12 mph64%30.01 "HgN/A
2:30 PM66 °FScattered clouds.13 mph64%30.01 "HgN/A
2:00 PM66 °FScattered clouds.13 mph64%30.01 "HgN/A
1:30 PM66 °FScattered clouds.13 mph64%30.01 "HgN/A
1:00 PM66 °FScattered clouds.13 mph64%30.04 "HgN/A
12:30 PM66 °FScattered clouds.10 mph60%30.04 "HgN/A
12:00 PM64 °FScattered clouds.13 mph68%30.04 "HgN/A
11:30 AM64 °FScattered clouds.10 mph68%30.04 "HgN/A
11:00 AM63 °FScattered clouds.10 mph73%30.04 "HgN/A
Weather by CustomWeather, © 2015

See weather overviewHow to use our weather pages